QPF
0.00 0.00 0.00 0.00 0.00 0.00 0.00 0.00 0.00 0.00 0.00 0.00 0.00 0.00 0.00 0.00 0.00 0.00 0.00 0.00 0.00 0.00 0.00 0.01 0.01 0.01 0.02 0.05 0.02 0.01 0.03 0.03 0.01 0.01 0.01 0.01 0.01 0.00 0.00 0.00 0.01 0.01 0.00 0.00
0.00 0.01 0.00 0.00 0.00 0.00 0.00 0.00 0.00 0.00 0.00 0.00 0.00 0.00 0.00 0.00 0.00 0.00 0.00 0.00 0.00 0.00 0.00 0.00 0.00 0.02 0.03 0.02 0.00 0.00 0.01 0.00 0.00 0.00 0.00 0.00 0.00 0.00 0.00 0.00 0.00 0.00 0.00 0.00
0.00 0.00 0.00 0.00 0.00 0.00 0.00 0.00 0.00 0.00 0.00 0.00 0.00 0.00 0.00 0.00 0.00 0.00 0.00 0.00 0.00 0.00 0.00 0.00 0.00 0.01 0.05 0.02 0.00 0.00 0.00 0.00 0.00 0.00 0.00 0.00 0.00 0.00 0.00 0.00 0.00 0.00 0.00 0.00
0.00 0.00 0.00 0.00 0.00 0.00 0.00 0.00 0.00 0.00 0.00 0.00 0.00 0.00 0.00 0.00 0.00 0.00 0.00 0.00 0.00 0.00 0.00 0.00 0.00 0.00 0.02 0.02 0.00 0.00 0.00 0.00 0.00 0.00 0.00 0.00 0.00 0.00 0.00 0.00 0.00 0.00 0.00 0.00
0.00 0.00 0.00 0.00 0.00 0.00 0.00 0.00 0.00 0.00 0.00 0.00 0.00 0.00 0.00 0.00 0.00 0.00 0.00 0.00 0.00 0.00 0.00 0.00 0.01 0.01 0.01 0.01 0.01 0.00 0.00 0.00 0.00 0.00 0.00 0.00 0.00 0.00 0.00 0.00 0.00 0.00 0.00 0.00
0.00 0.00 0.00 0.00 0.00 0.00 0.00 0.00 0.00 0.00 0.00 0.00 0.00 0.00 0.00 0.00 0.00 0.00 0.00 0.00 0.00 0.00 0.00 0.01 0.01 0.02 0.03 0.02 0.02 0.02 0.00 0.00 0.00 0.00 0.00 0.00 0.00 0.00 0.00 0.00 0.00 0.00 0.00 0.00
0.00 0.00 0.00 0.00 0.00 0.00 0.00 0.00 0.00 0.00 0.00 0.00 0.00 0.00 0.00 0.00 0.00 0.00 0.00 0.00 0.00 0.00 0.00 0.00 0.01 0.02 0.03 0.03 0.03 0.02 0.02 0.01 0.00 0.00 0.00 0.00 0.00 0.00 0.00 0.00 0.00 0.00 0.00 0.00
0.00 0.00 0.00 0.00 0.00 0.00 0.00 0.00 0.00 0.00 0.00 0.00 0.00 0.00 0.00 0.00 0.00 0.00 0.00 0.00 0.00 0.00 0.00 0.00 0.00 0.00 0.01 0.02 0.02 0.02 0.02 0.00 0.00 0.00 0.00 0.00 0.00 0.00 0.00 0.00 0.00 0.00 0.00 0.00
0.00 0.00 0.00 0.00 0.00 0.00 0.00 0.00 0.00 0.00 0.00 0.01 0.00 0.00 0.00 0.00 0.00 0.00 0.00 0.00 0.00 0.00 0.00 0.00 0.00 0.00 0.01 0.00 0.01 0.01 0.00 0.00 0.00 0.00 0.00 0.00 0.00 0.00 0.00 0.00 0.00 0.00 0.00 0.00
0.00 0.00 0.00 0.00 0.00 0.00 0.00 0.00 0.00 0.00 0.00 0.00 0.00 0.00 0.00 0.00 0.00 0.00 0.00 0.00 0.00 0.00 0.00 0.00 0.00 0.00 0.01 0.00 0.01 0.01 0.01 0.00 0.00 0.00 0.00 0.00 0.00 0.00 0.00 0.00 0.00 0.00 0.00 0.00
0.00 0.00 0.00 0.00 0.00 0.00 0.00 0.00 0.00 0.00 0.00 0.00 0.00 0.00 0.00 0.00 0.00 0.00 0.00 0.00 0.00 0.00 0.00 0.00 0.00 0.00 0.00 0.00 0.00 0.00 0.01 0.00 0.00 0.00 0.00 0.00 0.00 0.00 0.00 0.00 0.00 0.00 0.00 0.00
0.00 0.00 0.00 0.00 0.00 0.00 0.00 0.00 0.00 0.00 0.00 0.00 0.00 0.00 0.00 0.00 0.00 0.00 0.00 0.00 0.00 0.00 0.00 0.00 0.00 0.00 0.00 0.00 0.00 0.00 0.00 0.00 0.00 0.00 0.00 0.00 0.00 0.00 0.00 0.00 0.00 0.00 0.00 0.00
0.00 0.00 0.00 0.00 0.00 0.00 0.00 0.00 0.00 0.00 0.00 0.00 0.00 0.00 0.00 0.00 0.00 0.00 0.00 0.00 0.00 0.00 0.00 0.00 0.00 0.00 0.00 0.00 0.00 0.00 0.00 0.00 0.00 0.00 0.00 0.00 0.00 0.00 0.00 0.00 0.00 0.00 0.00 0.00
0.00 0.00 0.00 0.00 0.00 0.00 0.00 0.00 0.00 0.00 0.00 0.00 0.00 0.00 0.00 0.00 0.00 0.00 0.00 0.00 0.00 0.00 0.00 0.00 0.00 0.00 0.00 0.00 0.00 0.00 0.00 0.00 0.00 0.00 0.00 0.00 0.00 0.00 0.00 0.00 0.00 0.00 0.00 0.00
0.00 0.00 0.00 0.00 0.00 0.00 0.00 0.00 0.00 0.00 0.00 0.00 0.00 0.00 0.00 0.00 0.00 0.00 0.00 0.00 0.00 0.00 0.00 0.00 0.00 0.00 0.00 0.00 0.00 0.00 0.00 0.00 0.00 0.00 0.00 0.00 0.00 0.00 0.00 0.00 0.00 0.00 0.00 0.00
0.00 0.00 0.00 0.00 0.00 0.00 0.00 0.00 0.00 0.00 0.00 0.00 0.00 0.00 0.00 0.00 0.00 0.00 0.00 0.00 0.00 0.00 0.00 0.00 0.00 0.00 0.00 0.00 0.00 0.00 0.00 0.00 0.00 0.00 0.00 0.00 0.00 0.00 0.00 0.00 0.00 0.00 0.00 0.00
0.00 0.00 0.00 0.00 0.00 0.00 0.00 0.00 0.00 0.00 0.00 0.00 0.00 0.00 0.00 0.00 0.00 0.00 0.00 0.00 0.00 0.00 0.00 0.00 0.00 0.00 0.00 0.00 0.00 0.00 0.00 0.00 0.00 0.00 0.00 0.00 0.00 0.00 0.00 0.00 0.00 0.00 0.00 0.00
0.00 0.00 0.00 0.00 0.00 0.00 0.00 0.00 0.00 0.00 0.00 0.00 0.00 0.00 0.00 0.00 0.00 0.00 0.00 0.00 0.00 0.00 0.00 0.00 0.00 0.00 0.00 0.00 0.00 0.00 0.00 0.00 0.00 0.00 0.00 0.00 0.00 0.00 0.00 0.00 0.00 0.00 0.00 0.00
0.00 0.00 0.00 0.00 0.00 0.00 0.00 0.00 0.00 0.00 0.00 0.00 0.00 0.00 0.00 0.00 0.00 0.00 0.00 0.00 0.00 0.00 0.00 0.00 0.00 0.00 0.00 0.00 0.00 0.00 0.00 0.00 0.00 0.00 0.00 0.00 0.00 0.00 0.00 0.00 0.00 0.00 0.00 0.00
0.00 0.00 0.00 0.00 0.00 0.00 0.00 0.00 0.00 0.00 0.00 0.00 0.00 0.00 0.00 0.00 0.00 0.00 0.00 0.00 0.00 0.00 0.00 0.00 0.00 0.00 0.00 0.00 0.00 0.00 0.00 0.00 0.00 0.00 0.00 0.00 0.00 0.00 0.00 0.00 0.00 0.00 0.00 0.00
0.00 0.00 0.00 0.00 0.00 0.00 0.00 0.00 0.00 0.00 0.00 0.00 0.00 0.00 0.00 0.00 0.00 0.00 0.00 0.00 0.00 0.00 0.00 0.00 0.00 0.00 0.00 0.00 0.00 0.00 0.00 0.00 0.00 0.00 0.00 0.00 0.00 0.00 0.00 0.00 0.00 0.00 0.00 0.00
0.00 0.00 0.00 0.00 0.00 0.00 0.00 0.00 0.00 0.00 0.00 0.00 0.00 0.00 0.00 0.00 0.00 0.00 0.00 0.00 0.00 0.00 0.00 0.00 0.00 0.00 0.00 0.00 0.00 0.00 0.00 0.00 0.00 0.00 0.00 0.00 0.00 0.00 0.00 0.00 0.00 0.00 0.00 0.00
0.00 0.00 0.00 0.00 0.00 0.00 0.00 0.00 0.00 0.00 0.00 0.00 0.00 0.00 0.00 0.00 0.00 0.00 0.00 0.00 0.00 0.00 0.00 0.00 0.00 0.00 0.00 0.00 0.00 0.00 0.00 0.00 0.00 0.00 0.00 0.00 0.00 0.00 0.00 0.00 0.00 0.00 0.00 0.00
0.00 0.00 0.00 0.00 0.00 0.00 0.00 0.00 0.00 0.00 0.00 0.00 0.00 0.00 0.00 0.00 0.00 0.00 0.00 0.00 0.00 0.00 0.00 0.00 0.00 0.00 0.00 0.00 0.00 0.00 0.00 0.00 0.00 0.00 0.00 0.00 0.00 0.00 0.00 0.00 0.00 0.00 0.00 0.00
0.00 0.00 0.00 0.00 0.00 0.00 0.00 0.00 0.00 0.00 0.00 0.00 0.00 0.00 0.00 0.00 0.00 0.00 0.00 0.00 0.00 0.00 0.00 0.00 0.00 0.00 0.00 0.00 0.00 0.00 0.00 0.00 0.00 0.00 0.00 0.00 0.00 0.00 0.00 0.00 0.00 0.00 0.00 0.00
0.00 0.00 0.00 0.00 0.00 0.00 0.00 0.00 0.00 0.00 0.00 0.00 0.00 0.00 0.00 0.00 0.00 0.00 0.00 0.00 0.00 0.00 0.00 0.00 0.00 0.00 0.00 0.00 0.00 0.00 0.00 0.00 0.00 0.00 0.00 0.00 0.00 0.00 0.00 0.00 0.00 0.00 0.00 0.00
0.00 0.00 0.00 0.00 0.00 0.00 0.00 0.00 0.00 0.00 0.00 0.00 0.00 0.00 0.00 0.00 0.00 0.00 0.00 0.00 0.00 0.00 0.00 0.00 0.00 0.00 0.00 0.00 0.00 0.00 0.00 0.00 0.00 0.00 0.00 0.00 0.00 0.00 0.00 0.00 0.00 0.00 0.00 0.00
MSLP
1020.38 1019.66 1019.95 1020.94 1021.67 1021.43 1021.13 1021.20 1020.68 1019.53 1018.16 1017.05 1015.80 1013.92 1012.26 1010.63 1008.68 1007.41 1005.93 1004.28 1002.85 1001.40 999.74 998.62 998.33 998.86 999.70 1000.82 1002.31 1003.29 1004.40 1005.57 1006.93 1007.96 1008.86 1009.92 1010.97 1011.87 1012.91 1014.02 1014.98 1015.72 1016.62 1017.62
1019.79 1019.16 1019.57 1020.52 1021.76 1022.06 1021.62 1021.48 1021.31 1020.49 1018.83 1018.51 1016.79 1015.10 1013.11 1011.93 1010.36 1008.88 1007.58 1006.74 1005.25 1003.66 1002.50 1001.46 1000.73 999.76 1000.20 1001.15 1001.98 1003.19 1004.37 1005.59 1007.01 1008.01 1008.86 1009.79 1010.80 1011.85 1013.01 1014.15 1014.99 1015.93 1016.56 1017.27
1019.20 1018.56 1018.78 1020.58 1022.37 1022.53 1022.23 1022.03 1021.83 1020.89 1020.84 1018.90 1017.14 1015.38 1013.89 1012.81 1012.01 1010.52 1009.19 1007.95 1006.74 1005.78 1004.73 1003.54 1002.73 1001.92 1000.90 1001.17 1002.27 1003.47 1004.33 1005.57 1006.69 1007.70 1008.68 1009.79 1010.67 1011.77 1012.80 1013.91 1015.01 1016.01 1016.79 1017.51
1019.71 1018.32 1018.64 1021.38 1022.24 1022.81 1022.69 1022.65 1022.46 1021.55 1021.02 1020.04 1017.96 1015.92 1014.57 1013.84 1012.76 1011.76 1010.71 1009.56 1008.43 1007.43 1006.34 1005.11 1004.15 1003.19 1002.43 1001.86 1002.78 1003.57 1004.66 1005.79 1006.92 1007.80 1008.88 1009.97 1010.82 1011.93 1012.95 1014.04 1014.99 1015.88 1016.77 1017.48
1020.57 1019.50 1019.88 1020.88 1021.75 1021.86 1022.44 1022.70 1022.60 1022.15 1020.40 1019.18 1017.65 1015.70 1014.29 1013.69 1012.78 1012.18 1011.27 1010.36 1009.46 1008.48 1007.44 1006.29 1005.22 1004.40 1003.53 1002.86 1003.36 1004.31 1005.36 1006.25 1007.17 1008.07 1009.20 1010.12 1011.00 1011.93 1012.92 1013.86 1014.83 1015.75 1016.54 1017.24
1021.36 1020.57 1020.60 1022.74 1022.57 1022.13 1021.62 1022.11 1022.84 1022.91 1021.68 1020.00 1017.91 1015.85 1015.57 1014.49 1014.21 1013.59 1012.54 1011.56 1010.32 1009.10 1007.98 1006.70 1006.13 1005.20 1004.29 1004.10 1004.52 1005.01 1005.65 1006.48 1007.44 1008.23 1009.10 1010.02 1010.89 1011.82 1012.70 1013.64 1014.42 1015.47 1016.35 1017.24
1022.36 1021.72 1022.19 1023.66 1023.33 1021.88 1022.54 1024.97 1024.19 1023.49 1022.57 1021.30 1020.17 1019.60 1017.99 1016.47 1015.39 1014.78 1013.00 1011.73 1010.20 1008.97 1008.25 1007.75 1007.02 1006.13 1005.74 1005.60 1005.92 1005.76 1006.39 1007.10 1007.75 1008.42 1009.12 1010.01 1011.02 1012.03 1012.96 1013.88 1014.83 1015.80 1016.70 1017.49
1024.04 1023.14 1023.15 1024.12 1024.18 1024.84 1026.36 1025.84 1025.30 1024.81 1023.37 1021.83 1020.81 1019.34 1018.05 1016.93 1015.60 1014.34 1013.04 1011.51 1010.58 1009.63 1009.30 1009.05 1008.44 1007.68 1007.35 1007.09 1007.12 1006.45 1006.72 1007.49 1008.20 1008.88 1009.68 1010.54 1011.55 1012.62 1013.46 1014.43 1015.35 1016.34 1017.12 1018.15
1027.08 1025.40 1025.25 1025.67 1026.28 1026.30 1026.34 1025.78 1024.94 1024.34 1023.48 1022.52 1021.33 1019.81 1018.37 1017.05 1015.99 1014.76 1013.82 1013.14 1012.31 1011.41 1010.81 1010.25 1009.78 1009.38 1008.74 1008.56 1007.72 1007.35 1007.70 1008.58 1009.18 1009.92 1010.76 1011.47 1012.19 1013.08 1014.06 1014.91 1015.71 1016.64 1017.49 1018.48
1027.99 1026.42 1026.25 1025.96 1026.22 1026.86 1026.63 1025.91 1025.00 1023.84 1022.93 1022.38 1021.42 1020.24 1019.05 1017.77 1016.64 1015.72 1014.93 1014.29 1013.60 1012.76 1012.04 1011.37 1010.97 1010.55 1010.18 1009.54 1008.70 1008.44 1008.88 1009.58 1010.15 1010.79 1011.61 1012.36 1013.13 1013.63 1014.35 1015.21 1015.96 1016.65 1017.63 1018.73
1028.35 1027.40 1027.01 1026.06 1026.75 1027.03 1026.50 1026.02 1025.01 1023.95 1023.02 1022.22 1021.45 1020.80 1020.13 1019.08 1018.01 1017.04 1016.36 1015.62 1014.89 1014.25 1013.67 1013.02 1012.22 1011.53 1011.07 1010.45 1009.91 1009.78 1010.18 1010.62 1011.08 1011.59 1012.36 1013.20 1013.84 1014.43 1014.97 1015.59 1016.00 1016.48 1017.21 1018.07
1029.06 1029.30 1029.29 1028.11 1027.37 1027.06 1026.63 1026.02 1025.07 1024.25 1023.61 1023.05 1022.32 1021.46 1020.61 1019.80 1019.18 1018.42 1017.57 1016.78 1015.97 1015.49 1014.87 1014.18 1013.52 1012.88 1012.20 1011.79 1011.38 1011.04 1011.10 1011.41 1011.76 1012.28 1012.92 1013.61 1014.26 1015.07 1015.77 1016.24 1016.74 1017.09 1017.86 1018.56
1030.66 1030.10 1029.91 1028.97 1028.13 1027.25 1026.74 1025.70 1025.08 1024.63 1024.07 1023.24 1022.60 1022.10 1021.45 1020.84 1020.24 1019.54 1018.91 1018.18 1017.32 1016.71 1016.04 1015.27 1014.58 1014.03 1013.50 1012.91 1012.47 1012.25 1012.28 1012.41 1012.57 1013.07 1013.42 1014.05 1014.79 1015.30 1016.03 1017.09 1017.44 1017.96 1017.96 1019.35
1031.04 1030.63 1029.67 1028.94 1028.56 1027.90 1027.01 1026.19 1025.54 1024.95 1024.45 1023.87 1023.29 1022.73 1022.16 1021.65 1021.09 1020.50 1019.89 1019.21 1018.30 1017.61 1016.86 1016.22 1015.67 1015.09 1014.55 1014.07 1013.58 1013.40 1013.30 1013.30 1013.47 1013.88 1014.24 1014.72 1015.33 1015.80 1016.32 1017.07 1017.67 1018.70 1019.29 1019.65
1031.26 1030.90 1030.34 1029.62 1028.77 1027.97 1027.44 1026.77 1026.03 1025.63 1025.06 1024.49 1024.02 1023.68 1023.04 1022.36 1021.78 1021.34 1020.80 1019.98 1019.23 1018.48 1017.89 1017.22 1016.73 1016.06 1015.43 1014.92 1014.48 1014.33 1014.28 1014.26 1014.32 1014.62 1015.11 1015.55 1016.08 1016.76 1017.23 1017.80 1018.33 1018.71 1019.87 1020.70
1031.37 1030.80 1030.12 1029.57 1028.90 1028.27 1027.69 1027.06 1026.51 1026.10 1025.50 1025.01 1024.52 1024.03 1023.51 1022.90 1022.35 1021.82 1021.31 1020.67 1019.95 1019.37 1018.80 1018.31 1017.76 1017.14 1016.41 1015.78 1015.45 1015.42 1015.39 1015.01 1015.06 1015.64 1015.90 1016.29 1016.95 1017.39 1018.13 1018.71 1019.22 1019.93 1020.73 1021.72
1031.48 1030.63 1030.10 1029.57 1029.18 1028.64 1028.18 1027.77 1027.29 1026.92 1026.47 1025.82 1025.22 1024.80 1024.14 1023.40 1022.85 1022.38 1021.79 1021.26 1020.81 1020.31 1019.69 1019.09 1018.60 1018.06 1017.47 1016.95 1016.53 1016.37 1016.24 1016.18 1016.11 1016.62 1017.23 1017.72 1018.05 1018.75 1019.12 1019.73 1020.56 1021.26 1022.04 1022.81
1031.49 1030.98 1030.45 1029.95 1029.33 1028.90 1028.55 1028.21 1027.81 1027.35 1026.74 1026.24 1025.73 1025.31 1024.76 1024.04 1023.69 1023.19 1022.52 1021.88 1021.25 1020.84 1020.41 1019.87 1019.25 1018.85 1018.45 1018.06 1017.81 1017.63 1017.46 1017.51 1017.66 1018.16 1018.60 1018.74 1019.15 1019.94 1020.42 1021.03 1021.83 1022.58 1023.54 1024.34
1031.34 1030.83 1030.36 1029.96 1029.55 1029.07 1028.70 1028.30 1027.86 1027.39 1027.03 1026.66 1026.19 1025.76 1025.39 1024.95 1024.43 1023.84 1023.27 1022.54 1021.92 1021.49 1021.33 1020.86 1020.25 1019.68 1019.32 1019.11 1018.88 1018.83 1018.89 1019.03 1019.26 1019.49 1019.79 1020.18 1020.77 1021.43 1021.90 1022.62 1023.49 1024.23 1025.08 1025.74
1031.29 1030.80 1030.36 1029.97 1029.54 1029.20 1028.84 1028.51 1028.17 1027.84 1027.60 1027.08 1026.59 1026.25 1025.83 1025.48 1024.91 1024.48 1023.94 1023.37 1023.11 1022.77 1022.20 1021.64 1021.18 1020.85 1020.59 1020.36 1020.13 1020.11 1020.17 1020.33 1020.53 1020.88 1021.27 1021.78 1022.36 1022.91 1023.55 1024.21 1024.94 1025.60 1026.26 1026.96
1031.12 1030.78 1030.52 1030.16 1029.81 1029.58 1029.35 1029.08 1028.66 1028.28 1028.05 1027.66 1027.18 1026.82 1026.63 1026.09 1025.74 1025.31 1024.64 1024.20 1024.05 1023.59 1023.05 1022.55 1022.19 1021.97 1021.79 1021.66 1021.51 1021.56 1021.67 1021.86 1022.07 1022.48 1022.90 1023.41 1023.91 1024.50 1025.11 1025.71 1026.36 1026.90 1027.48 1028.15
1030.96 1030.75 1030.61 1030.39 1030.11 1029.90 1029.81 1029.55 1029.24 1028.97 1028.70 1028.28 1028.05 1027.87 1027.50 1027.10 1026.81 1026.50 1026.11 1025.66 1025.22 1024.54 1024.10 1023.72 1023.43 1023.13 1022.96 1022.87 1022.94 1023.04 1023.21 1023.39 1023.67 1023.97 1024.37 1024.83 1025.33 1025.91 1026.51 1027.05 1027.59 1028.16 1028.73 1029.34
1030.98 1030.84 1030.73 1030.68 1030.56 1030.40 1030.20 1030.01 1029.83 1029.67 1029.45 1029.21 1028.98 1028.79 1028.51 1028.42 1028.30 1027.81 1027.19 1026.94 1026.34 1025.86 1025.35 1024.98 1024.74 1024.47 1024.35 1024.39 1024.51 1024.61 1024.75 1024.97 1025.28 1025.62 1025.99 1026.37 1026.79 1027.25 1027.77 1028.30 1028.83 1029.32 1029.84 1030.37
1031.12 1030.96 1030.95 1030.97 1030.88 1030.69 1030.66 1030.62 1030.42 1030.31 1030.22 1029.94 1029.72 1029.66 1029.39 1029.24 1029.22 1028.99 1028.63 1028.26 1027.65 1027.06 1026.64 1026.47 1026.21 1025.98 1025.85 1026.02 1026.16 1026.28 1026.47 1026.72 1026.99 1027.25 1027.55 1027.89 1028.31 1028.69 1029.08 1029.53 1029.93 1030.39 1030.78 1031.20
1031.37 1031.27 1031.20 1031.16 1031.19 1031.19 1031.12 1030.99 1030.85 1030.84 1030.69 1030.49 1030.40 1030.34 1030.28 1030.20 1029.94 1029.90 1029.56 1029.15 1028.63 1028.36 1028.17 1027.79 1027.57 1027.58 1027.65 1027.76 1027.78 1027.85 1028.01 1028.26 1028.50 1028.63 1028.91 1029.22 1029.60 1029.98 1030.36 1030.66 1030.95 1031.27 1031.59 1031.88
1031.62 1031.58 1031.59 1031.64 1031.66 1031.54 1031.39 1031.31 1031.18 1031.13 1030.99 1030.93 1030.99 1030.94 1030.90 1030.79 1030.62 1030.45 1030.15 1029.94 1029.74 1029.55 1029.35 1029.24 1029.22 1029.30 1029.26 1029.25 1029.29 1029.43 1029.63 1029.84 1029.97 1030.13 1030.28 1030.56 1030.87 1031.11 1031.39 1031.70 1031.94 1032.15 1032.44 1032.76
1031.88 1031.83 1031.84 1031.85 1031.88 1031.76 1031.62 1031.60 1031.49 1031.45 1031.41 1031.47 1031.50 1031.55 1031.48 1031.38 1031.21 1031.02 1030.80 1030.72 1030.69 1030.70 1030.67 1030.64 1030.57 1030.54 1030.68 1030.73 1030.69 1030.70 1030.84 1030.92 1031.10 1031.37 1031.58 1031.75 1031.96 1032.19 1032.36 1032.58 1032.83 1033.07 1033.33 1033.61
Thickness
5307 5309 5297 5275 5255 5260 5259 5251 5250 5248 5258 5267 5268 5284 5305 5323 5342 5363 5387 5412 5440 5470 5503 5531 5548 5558 5560 5554 5557 5560 5563 5567 5566 5566 5564 5566 5567 5568 5569 5570 5572 5574 5572 5571
5308 5323 5312 5298 5267 5261 5268 5261 5256 5255 5268 5263 5277 5291 5313 5326 5343 5362 5383 5401 5427 5454 5479 5504 5524 5550 5557 5556 5561 5562 5563 5561 5559 5558 5559 5561 5564 5565 5566 5566 5568 5566 5567 5568
5327 5339 5332 5310 5261 5257 5266 5265 5257 5257 5256 5270 5286 5299 5318 5332 5342 5360 5378 5399 5421 5442 5462 5484 5503 5525 5552 5558 5559 5557 5560 5558 5557 5558 5560 5559 5563 5562 5564 5564 5562 5561 5560 5560
5323 5347 5342 5286 5281 5267 5264 5263 5260 5265 5267 5273 5290 5310 5329 5334 5344 5362 5374 5392 5413 5433 5453 5473 5494 5512 5532 5552 5552 5555 5555 5554 5553 5556 5556 5554 5557 5556 5556 5555 5555 5555 5554 5554
5317 5332 5326 5303 5288 5284 5271 5275 5268 5266 5281 5292 5306 5332 5347 5346 5358 5368 5379 5393 5409 5427 5446 5466 5483 5502 5521 5543 5547 5547 5547 5549 5550 5550 5546 5547 5549 5550 5550 5550 5549 5549 5549 5551
5319 5323 5332 5281 5285 5292 5297 5297 5273 5269 5277 5290 5312 5335 5339 5347 5352 5362 5376 5391 5407 5425 5442 5461 5475 5494 5516 5531 5536 5539 5541 5542 5542 5543 5544 5544 5546 5546 5547 5546 5547 5545 5545 5544
5314 5322 5316 5285 5287 5303 5292 5272 5267 5273 5278 5288 5301 5308 5323 5340 5352 5358 5376 5394 5412 5428 5440 5451 5465 5483 5496 5508 5513 5527 5531 5532 5535 5536 5538 5539 5539 5539 5539 5539 5537 5537 5535 5534
5302 5310 5308 5290 5286 5273 5260 5263 5265 5267 5279 5294 5305 5317 5331 5341 5354 5369 5385 5400 5411 5422 5431 5439 5451 5466 5478 5486 5494 5514 5521 5523 5525 5527 5529 5530 5529 5528 5528 5526 5525 5522 5521 5519
5269 5292 5289 5282 5269 5271 5268 5268 5274 5278 5287 5295 5306 5320 5336 5349 5359 5371 5381 5391 5402 5413 5422 5432 5441 5449 5461 5469 5483 5498 5505 5506 5508 5510 5512 5514 5514 5514 5513 5513 5513 5512 5510 5507
5258 5281 5276 5280 5278 5268 5268 5271 5279 5291 5299 5304 5312 5324 5335 5349 5360 5370 5380 5386 5396 5406 5415 5426 5434 5442 5450 5460 5473 5483 5487 5489 5493 5497 5498 5500 5501 5505 5506 5505 5504 5504 5502 5498
5258 5273 5269 5284 5273 5268 5271 5274 5283 5294 5303 5309 5317 5323 5330 5341 5353 5364 5372 5379 5388 5395 5403 5413 5424 5434 5442 5452 5461 5470 5474 5477 5481 5485 5486 5487 5489 5491 5493 5492 5496 5497 5496 5493
5258 5246 5245 5257 5266 5269 5271 5275 5286 5292 5297 5304 5312 5321 5330 5339 5347 5355 5364 5371 5381 5387 5394 5402 5412 5421 5431 5439 5448 5457 5464 5468 5471 5474 5476 5477 5478 5477 5478 5480 5481 5483 5482 5481
5223 5232 5235 5246 5258 5269 5270 5281 5287 5291 5296 5304 5312 5319 5326 5333 5339 5348 5353 5360 5369 5375 5384 5393 5402 5410 5417 5427 5436 5444 5450 5454 5460 5462 5466 5468 5468 5470 5470 5466 5469 5470 5474 5465
5210 5217 5232 5246 5250 5259 5270 5277 5284 5290 5295 5301 5308 5314 5320 5325 5331 5337 5343 5350 5360 5367 5375 5383 5390 5398 5405 5413 5423 5430 5438 5445 5448 5451 5454 5456 5458 5460 5461 5460 5460 5457 5456 5457
5196 5206 5218 5232 5246 5257 5265 5272 5280 5284 5290 5296 5301 5304 5311 5317 5322 5327 5332 5341 5349 5357 5364 5373 5380 5387 5396 5404 5413 5419 5425 5430 5436 5439 5442 5445 5445 5445 5447 5447 5447 5449 5444 5440
5190 5199 5215 5229 5242 5251 5260 5268 5275 5280 5286 5291 5296 5300 5305 5311 5316 5321 5325 5332 5339 5345 5354 5361 5369 5377 5386 5395 5403 5407 5413 5422 5427 5428 5431 5433 5433 5435 5434 5434 5435 5434 5431 5427
5191 5205 5214 5227 5236 5245 5253 5260 5266 5270 5275 5282 5288 5292 5298 5305 5310 5314 5319 5324 5330 5336 5344 5353 5360 5367 5376 5384 5392 5398 5402 5407 5415 5417 5418 5419 5422 5419 5422 5422 5420 5418 5415 5413
5195 5202 5212 5223 5234 5242 5248 5254 5259 5266 5273 5278 5283 5286 5291 5296 5300 5305 5311 5318 5326 5331 5337 5344 5352 5359 5366 5374 5381 5386 5392 5395 5399 5400 5402 5406 5408 5407 5407 5406 5404 5403 5398 5395
5198 5206 5216 5223 5230 5239 5245 5252 5259 5264 5269 5272 5277 5281 5283 5285 5291 5297 5302 5310 5317 5324 5327 5334 5342 5351 5358 5364 5370 5375 5378 5381 5384 5387 5389 5391 5390 5391 5391 5388 5384 5382 5379 5378
5199 5207 5217 5224 5231 5237 5243 5248 5254 5259 5262 5268 5273 5277 5279 5280 5285 5288 5293 5298 5303 5309 5316 5325 5332 5339 5346 5352 5358 5363 5367 5369 5372 5373 5373 5373 5374 5374 5373 5371 5369 5367 5365 5363
5201 5208 5215 5223 5228 5232 5237 5242 5249 5253 5257 5262 5267 5269 5271 5274 5275 5278 5283 5288 5291 5298 5306 5314 5321 5328 5334 5339 5345 5349 5352 5355 5357 5357 5357 5357 5357 5357 5356 5355 5353 5352 5351 5348
5204 5209 5215 5220 5225 5229 5232 5237 5242 5246 5250 5255 5257 5259 5263 5265 5266 5267 5269 5274 5279 5287 5295 5303 5310 5317 5322 5327 5331 5334 5337 5340 5341 5343 5343 5344 5343 5343 5341 5340 5339 5337 5335 5332
5204 5208 5213 5216 5220 5224 5228 5231 5234 5237 5241 5244 5247 5250 5254 5255 5255 5259 5264 5266 5272 5278 5285 5292 5298 5304 5309 5313 5316 5319 5322 5324 5325 5326 5327 5328 5328 5328 5327 5326 5324 5323 5320 5318
5203 5207 5210 5213 5216 5220 5222 5223 5227 5230 5232 5236 5239 5241 5245 5248 5250 5253 5256 5261 5268 5273 5278 5282 5287 5292 5297 5299 5302 5305 5306 5308 5309 5311 5312 5313 5313 5313 5313 5312 5311 5310 5309 5308
5199 5203 5207 5210 5211 5213 5215 5218 5221 5222 5226 5229 5232 5235 5237 5240 5245 5248 5252 5257 5264 5267 5270 5275 5280 5283 5285 5287 5291 5294 5296 5298 5299 5301 5302 5303 5303 5302 5302 5302 5302 5301 5301 5300
5195 5199 5201 5203 5205 5208 5211 5214 5216 5219 5222 5225 5226 5229 5231 5235 5240 5244 5249 5254 5258 5261 5264 5267 5271 5273 5276 5278 5281 5283 5285 5287 5289 5291 5292 5293 5293 5294 5294 5294 5293 5293 5293 5292
5191 5195 5197 5199 5201 5203 5207 5209 5212 5214 5217 5219 5221 5223 5227 5231 5236 5240 5245 5249 5252 5255 5257 5259 5262 5265 5267 5269 5272 5275 5277 5279 5280 5282 5283 5284 5284 5285 5285 5285 5285 5284 5283 5282